Location: Voyageurs National Park
(48.5020°N, 92.9292°W)
Time: 18:10:24
(UTC-05:00)

Amateur Radio Satellites - All Passes

Search period start: 29 June 2015 17:40
Search period end: 30 June 2015 17:40
Location: Voyageurs National Park, 48.5020°N, 92.9292°W

Satellite Date Start Highest point End Downlink Frequencies (MHz)
Time Altitude Azimuth
ISS 29 Jun 17:40:34 17:42:36 15° 222° (SW) 17:44:35 145.825
KKS-1 29 Jun 17:44:28 17:47:40 19° 299° (WNW) 17:50:46 437.445
Cubesat XI-IV 29 Jun 17:47:49 17:52:47 41° 66° (ENE) 17:57:50 437.490
PCSat 29 Jun 17:54:13 17:59:37 76° 122° (ESE) 18:05:05 145.827
AIST 2 29 Jun 18:08:33 18:12:40 47° 45° (NE) 18:16:43 435.215
AIST 1 29 Jun 18:16:18 18:19:38 20° 294° (WNW) 18:22:54
YUBILEINY 29 Jun 18:30:31 18:32:57 11° 291° (WNW) 18:34:45 435.215
Cosmos 2504 29 Jun 18:33:13 18:40:40 68° 265° (W) 18:48:36 435.465 / 435.565
Cosmos 2491 29 Jun 18:52:26 18:59:17 23° 305° (NW) 19:05:51 435.465 / 435.565
SO-50 29 Jun 18:53:39 18:58:17 53° 123° (ESE) 19:03:05 436.795
CUTE-I 29 Jun 18:54:57 19:00:16 61° 258° (WSW) 19:05:37 437.470
MOZHAYETS 4 29 Jun 18:57:40 19:01:42 29° 294° (WNW) 19:05:39
BRITE-PL 29 Jun 18:59:00 19:03:19 25° 63° (ENE) 19:07:33 437.365/2234.400
BEESAT 3 29 Jun 19:01:50 19:04:20 15° 247° (WSW) 19:06:40 437.485
GOMX 1 29 Jun 19:03:55 19:07:06 17° 61° (ENE) 19:10:20 467.674
BEESAT 2 29 Jun 19:05:53 19:08:42 18° 246° (WSW) 19:11:21 435.950
CUBESAT XI-V 29 Jun 19:08:21 19:12:50 42° 97° (E) 19:17:18 437.345
GONETS M04 29 Jun 19:08:31 19:14:13 19° 51° (NE) 19:20:14
O/OREOS (USA 219) 29 Jun 19:11:22 19:15:41 45° 250° (WSW) 19:20:00 437.305
Cubesat XI-IV 29 Jun 19:28:08 19:33:00 33° 265° (W) 19:37:50 437.490
STRAND 1 29 Jun 19:28:18 19:32:32 26° 92° (E) 19:36:50 437.568
HO-68 29 Jun 19:28:26 19:34:31 32° 57° (ENE) 19:40:45 435.675
CUSAT 1 29 Jun 19:28:36 19:31:19 27° 69° (ENE) 19:33:43 437.405
PCSat 29 Jun 19:39:03 19:43:38 26° 324° (NW) 19:48:10 145.827
CUTE 1.7 + AOD 2 29 Jun 19:43:37 19:46:23 18° 62° (ENE) 19:49:15 437.475
CANX-2 29 Jun 19:45:47 19:48:49 20° 64° (ENE) 19:51:57 2200.000
AIST 2 29 Jun 19:47:32 19:51:01 25° 244° (WSW) 19:54:22 435.215
COMPASS 1 29 Jun 19:52:06 19:54:18 15° 61° (ENE) 19:56:39 437.405
DANDE 29 Jun 19:54:01 19:57:22 39° 71° (ENE) 20:00:06 436.750
CINEMA 3 29 Jun 20:03:41 20:06:28 17° 62° (ENE) 20:09:19 145.822/145.860
PRISM 29 Jun 20:08:12 20:12:22 53° 101° (E) 20:16:29 437.425
DOVE 4 29 Jun 20:13:04 20:17:40 40° 69° (ENE) 20:22:03 437.250
Cosmos 2504 29 Jun 20:29:14 20:32:54 14° 284° (WNW) 20:36:10 435.465 / 435.565
SO-50 29 Jun 20:34:43 20:39:05 32° 324° (NW) 20:43:32 436.795
BRITE-PL 29 Jun 20:36:01 20:41:32 60° 260° (W) 20:46:46 437.365/2234.400
Oscar 11 29 Jun 20:39:12 20:42:09 19° 62° (ENE) 20:45:14 145.826/435.025
SEEDS 29 Jun 20:39:16 20:43:16 48° 71° (ENE) 20:47:20 437.485
GOMX 1 29 Jun 20:39:28 20:44:45 82° 256° (WSW) 20:49:44 467.674
CUBESAT XI-V 29 Jun 20:46:08 20:50:06 27° 296° (WNW) 20:53:58 437.345
UWE-3 29 Jun 20:54:20 20:57:23 20° 64° (ENE) 21:00:29 435.000/436.395/437.385
FUNcube-1 29 Jun 20:57:07 20:59:42 17° 62° (ENE) 21:02:24 145.935
AAUSAT CUBESAT 2 29 Jun 21:04:03 21:08:07 60° 73° (ENE) 21:12:14 437.432
GONETS M04 29 Jun 21:04:18 21:13:03 73° 77° (ENE) 21:21:44
AUBIESAT-1 29 Jun 21:04:35 21:07:10 17° 97° (E) 21:09:59 437.475
STRAND 1 29 Jun 21:07:02 21:12:01 49° 292° (WNW) 21:16:58 437.568
Cosmos 2499 29 Jun 21:08:45 21:13:58 20° 57° (ENE) 21:19:44 435.465 / 435.565
CUSAT 1 29 Jun 21:13:00 21:13:29 10° 274° (W) 21:13:51 437.405
HO-68 29 Jun 21:14:47 21:21:54 64° 257° (WSW) 21:29:01 435.675
CUTE 1.7 + AOD 2 29 Jun 21:17:46 21:21:55 57° 260° (W) 21:26:06 437.475
CANX-2 29 Jun 21:20:22 21:24:27 48° 261° (W) 21:28:34 2200.000
HUMSAT D 29 Jun 21:22:38 21:24:43 14° 61° (ENE) 21:26:57 437.325/437.525
COMPASS 1 29 Jun 21:25:22 21:29:29 71° 258° (WSW) 21:33:40 437.405
CUBEBUG 2 29 Jun 21:26:55 21:31:05 48° 71° (ENE) 21:35:12 437.445
PCSat 29 Jun 21:27:05 21:29:02 12° 349° (NNW) 21:30:55 145.827
M-CUBED/EXP-1 PRIME 29 Jun 21:32:46 21:36:27 35° 103° (ESE) 21:40:25 437.505
CINEMA 3 29 Jun 21:38:42 21:43:17 67° 258° (WSW) 21:47:41 145.822/145.860
DX 1 29 Jun 21:41:58 21:45:14 21° 63° (ENE) 21:48:37 434.975-435.025
PRISM 29 Jun 21:44:27 21:47:27 19° 298° (WNW) 21:50:21 437.425
DOVE 4 29 Jun 21:51:12 21:55:31 28° 266° (W) 21:59:36 437.250
ZACube-1 29 Jun 21:52:52 21:57:01 56° 73° (ENE) 22:01:08 437.345
DELFI C3 29 Jun 21:56:56 22:00:56 73° 75° (ENE) 22:04:58 145.870
AISAT 29 Jun 21:57:20 22:00:21 18° 61° (ENE) 22:03:29 437.250
ESTCUBE 1 29 Jun 22:10:10 22:12:55 16° 60° (ENE) 22:15:48 437.505/2401.250
UKube-1 29 Jun 22:10:23 22:14:18 35° 67° (ENE) 22:18:17 .
Oscar 11 29 Jun 22:13:46 22:17:59 55° 260° (W) 22:22:14 145.826/435.025
SEEDS 29 Jun 22:16:21 22:19:22 19° 270° (W) 22:22:17 437.485
SO-50 29 Jun 22:18:30 22:21:07 14° 347° (NNW) 22:23:43 436.795
GOMX 1 29 Jun 22:21:29 22:23:39 12° 275° (W) 22:25:29 467.674
UWE-3 29 Jun 22:29:28 22:33:39 49° 261° (W) 22:37:46 435.000/436.395/437.385
FUNcube-1 29 Jun 22:31:28 22:35:40 61° 259° (W) 22:39:49 145.935
CUBEBUG 1 29 Jun 22:32:04 22:35:21 21° 63° (ENE) 22:38:45 437.445
UNISAT 6 29 Jun 22:32:26 22:33:45 11° 86° (E) 22:35:18 437.425
50 SAT 29 Jun 22:35:25 22:38:56 36° 70° (ENE) 22:42:30 437.505
AUBIESAT-1 29 Jun 22:38:17 22:42:12 57° 293° (WNW) 22:46:24 437.475
AAUSAT CUBESAT 2 29 Jun 22:41:45 22:44:11 15° 272° (W) 22:46:29 437.432
VELOX 1 29 Jun 22:46:54 22:51:12 48° 70° (ENE) 22:55:31 145.980
HUMSAT D 29 Jun 22:55:52 22:59:59 71° 258° (WSW) 23:04:06 437.325/437.525
Cosmos 2499 29 Jun 23:00:48 23:08:25 83° 80° (E) 23:16:39 435.465 / 435.565
GONETS M04 29 Jun 23:02:02 23:09:13 29° 279° (W) 23:16:09
CUBEBUG 2 29 Jun 23:04:53 23:08:04 19° 269° (W) 23:11:06 437.445
M-CUBED/EXP-1 PRIME 29 Jun 23:07:49 23:11:11 27° 298° (WNW) 23:14:44 437.505
HO-68 29 Jun 23:08:13 23:11:17 12° 279° (W) 23:13:51 435.675
POLYITAN 1 29 Jun 23:11:12 23:12:49 12° 86° (E) 23:14:37 437.675
PCSat 29 Jun 23:12:41 23:14:57 13° 15° (NNE) 23:17:17 145.827
DUCHIFAT 1 29 Jun 23:13:08 23:14:41 12° 86° (E) 23:16:26 145.980
ANTELSAT 29 Jun 23:14:55 23:18:43 30° 95° (E) 23:22:37 437.575/2403.000
DX 1 29 Jun 23:16:56 23:21:12 49° 260° (W) 23:25:30 434.975-435.025
TISAT 1 29 Jun 23:22:46 23:25:07 15° 60° (ENE) 23:27:36 437.305
TIGRISAT 29 Jun 23:29:34 23:33:37 40° 97° (E) 23:37:46 435.000
ZACube-1 29 Jun 23:31:01 23:33:47 16° 271° (W) 23:36:22 437.345
AISAT 29 Jun 23:32:06 23:36:32 62° 259° (WSW) 23:41:00 437.250
DELFI C3 29 Jun 23:35:06 23:36:36 11° 274° (W) 23:37:54 145.870
QB50P2 29 Jun 23:40:24 23:43:51 24° 93° (E) 23:47:20 145.880/145.840
POPSAT HIP 1 29 Jun 23:42:31 23:45:58 24° 93° (E) 23:49:28 437.405
ESTCUBE 1 29 Jun 23:44:45 23:49:17 73° 257° (WSW) 23:53:51 437.505/2401.250
UKube-1 29 Jun 23:46:44 23:50:30 28° 266° (W) 23:54:14 .
BUGSAT 1 29 Jun 23:52:49 23:55:51 20° 91° (E) 23:58:57 437.445
SPROUT 29 Jun 23:53:44 23:57:45 39° 69° (ENE) 00:01:47 437.525
SO-50 30 Jun 00:01:11 00:03:41 14° 11° (NNE) 00:06:13 436.795
UNISAT 6 30 Jun 00:06:52 00:11:13 84° 285° (WNW) 00:15:36 437.425
CUBEBUG 1 30 Jun 00:07:05 00:11:25 51° 261° (W) 00:15:47 437.445
50 SAT 30 Jun 00:10:46 00:13:44 20° 268° (W) 00:16:37 437.505
QB50P1 30 Jun 00:21:42 00:25:54 62° 101° (E) 00:30:03 145.935-145.965
VELOX 1 30 Jun 00:24:33 00:28:01 21° 269° (W) 00:31:24 145.980
BEESAT 30 Jun 00:32:30 00:35:24 17° 58° (ENE) 00:38:28 436.000
NANOSAT C BR1 30 Jun 00:38:02 00:42:17 89° 125° (SE) 00:46:28 145.865
POLYITAN 1 30 Jun 00:45:06 00:49:20 76° 286° (WNW) 00:53:31 437.675
SWISSCUBE 30 Jun 00:46:20 00:50:00 23° 62° (ENE) 00:53:47 437.505
DUCHIFAT 1 30 Jun 00:46:54 00:51:07 76° 286° (WNW) 00:55:17 145.980
ITUPSAT 1 30 Jun 00:49:06 00:52:44 22° 61° (ENE) 00:56:27 437.325
ANTELSAT 30 Jun 00:51:41 00:55:32 32° 293° (WNW) 00:59:24 437.575/2403.000
Cosmos 2499 30 Jun 00:55:09 01:00:52 23° 278° (W) 01:06:36 435.465 / 435.565
PCSat 30 Jun 00:55:24 01:00:11 31° 39° (NE) 01:05:00 145.827
TISAT 1 30 Jun 00:56:09 01:00:24 72° 257° (WSW) 01:04:40 437.305
Cosmos 2491 30 Jun 01:02:21 01:07:07 16° 47° (NE) 01:12:17 435.465 / 435.565
TIGRISAT 30 Jun 01:06:43 01:10:14 24° 295° (WNW) 01:13:43 435.000
QB50P2 30 Jun 01:15:56 01:19:51 37° 291° (WNW) 01:23:43 145.880/145.840
POPSAT HIP 1 30 Jun 01:18:04 01:21:57 36° 292° (WNW) 01:25:48 437.405
BUGSAT 1 30 Jun 01:27:39 01:31:33 41° 290° (WNW) 01:35:22 437.445
SPROUT 30 Jun 01:30:24 01:33:59 24° 267° (W) 01:37:29 437.525
KKS-1 30 Jun 01:35:24 01:37:05 12° 57° (ENE) 01:38:58 437.445
SO-50 30 Jun 01:41:24 01:45:47 30° 35° (NE) 01:50:10 436.795
UNISAT 6 30 Jun 01:45:44 01:47:23 12° 302° (WNW) 01:48:51 437.425
Oscar 19 30 Jun 01:51:33 01:55:37 24° 91° (E) 01:59:48 437.125/150
QB50P1 30 Jun 01:58:38 02:01:21 17° 299° (WNW) 02:03:57 145.935-145.965
BEESAT 30 Jun 02:07:56 02:12:43 78° 256° (WSW) 02:17:33 436.000
NANOSAT C BR1 30 Jun 02:15:46 02:17:31 12° 302° (WNW) 02:19:06 145.865
SWISSCUBE 30 Jun 02:22:52 02:27:33 53° 260° (W) 02:32:17 437.505
POLYITAN 1 30 Jun 02:23:50 02:24:32 10° 303° (WNW) 02:25:02 437.675
DUCHIFAT 1 30 Jun 02:25:33 02:26:13 10° 303° (WNW) 02:26:42 145.980
ITUPSAT 1 30 Jun 02:25:35 02:30:17 55° 259° (W) 02:35:02 437.325
RS-15 30 Jun 02:36:05 02:44:51 31° 106° (ESE) 02:54:11 29.354- 29.394
STARS 30 Jun 02:38:01 02:41:44 28° 65° (ENE) 02:45:30 437.465
PCSat 30 Jun 02:38:37 02:44:00 61° 241° (WSW) 02:49:19 145.827
AIST 1 30 Jun 02:41:15 02:44:23 19° 66° (ENE) 02:47:35
Gurwin Techsat 1B 30 Jun 02:54:30 02:59:00 28° 93° (E) 03:03:34 435.225
Cosmos 2491 30 Jun 02:57:46 03:06:27 60° 74° (ENE) 03:15:04 435.465 / 435.565
KKS-1 30 Jun 03:08:35 03:13:03 82° 76° (ENE) 03:17:33 437.445
SO-50 30 Jun 03:21:47 03:26:42 63° 236° (SW) 03:31:33 436.795
ITAMSAT 1 30 Jun 03:30:18 03:35:25 52° 99° (E) 03:40:31 435.822/435.867
Oscar 19 30 Jun 03:30:20 03:35:19 52° 291° (WNW) 03:40:16 437.125/150
YUBILEINY 30 Jun 03:38:56 03:46:42 40° 86° (E) 03:54:36 435.215
BEESAT 30 Jun 03:50:36 03:51:29 10° 276° (W) 03:52:04 436.000
HORYU 2 30 Jun 03:57:26 03:59:55 15° 88° (E) 04:02:35 437.375
STARS 30 Jun 04:13:59 04:18:05 36° 263° (W) 04:22:09 437.465
AIST 1 30 Jun 04:18:07 04:22:24 50° 266° (W) 04:26:36
MOZHAYETS 4 30 Jun 04:25:41 04:30:07 54° 72° (ENE) 04:34:38
JAS-2 30 Jun 04:32:14 04:38:21 56° 100° (E) 04:45:16 435.910
Gurwin Techsat 1B 30 Jun 04:34:07 04:39:15 48° 292° (WNW) 04:44:19 435.225
CUBESAT XI-V 30 Jun 04:42:40 04:43:11 10° 54° (NE) 04:43:57 437.345
RS-15 30 Jun 04:45:06 04:56:05 85° 310° (NW) 05:07:32 29.354- 29.394
KKS-1 30 Jun 04:48:25 04:50:22 12° 274° (W) 04:52:07 437.445
Cosmos 2491 30 Jun 04:55:12 05:02:58 36° 275° (W) 05:10:31 435.465 / 435.565
AO-7 30 Jun 05:00:25 05:08:33 52° 101° (E) 05:16:40 29.400- 29.500
ITAMSAT 1 30 Jun 05:10:19 05:14:41 27° 298° (WNW) 05:18:57 435.822/435.867
Cosmos 2504 30 Jun 05:26:23 05:30:50 18° 79° (E) 05:35:35 435.465 / 435.565
HORYU 2 30 Jun 05:32:39 05:37:05 68° 288° (WNW) 05:41:32 437.375
YUBILEINY 30 Jun 05:34:51 05:43:21 55° 288° (WNW) 05:51:51 435.215
Cubesat XI-IV 30 Jun 06:03:26 06:04:57 11° 83° (E) 06:06:47 437.490
MOZHAYETS 4 30 Jun 06:04:22 06:07:44 19° 271° (W) 06:10:59
CUBESAT XI-V 30 Jun 06:15:07 06:19:46 63° 73° (ENE) 06:24:28 437.345
JAS-2 30 Jun 06:17:52 06:23:17 33° 296° (WNW) 06:29:10 435.910
STRAND 1 30 Jun 06:47:37 06:52:36 53° 70° (ENE) 06:57:39 437.568
AO-7 30 Jun 06:53:27 07:01:20 46° 302° (WNW) 07:09:07 29.400- 29.500
RS-15 30 Jun 06:59:53 07:10:13 41° 339° (NNW) 07:20:57 29.354- 29.394
PRISM 30 Jun 07:01:36 07:05:43 66° 73° (ENE) 07:09:54 437.425
CUTE-I 30 Jun 07:08:13 07:13:17 40° 97° (E) 07:18:19 437.470
HORYU 2 30 Jun 07:12:18 07:12:58 10° 305° (NW) 07:13:25 437.375
Cosmos 2504 30 Jun 07:16:04 07:23:19 88° 279° (W) 07:30:33 435.465 / 435.565
DANDE 30 Jun 07:28:21 07:30:02 11° 84° (E) 07:32:04 436.750
YUBILEINY 30 Jun 07:38:21 07:42:50 14° 315° (NW) 07:46:53 435.215
Cubesat XI-IV 30 Jun 07:40:43 07:46:08 74° 103° (ESE) 07:51:31 437.490
O/OREOS (USA 219) 30 Jun 07:50:54 07:52:37 12° 99° (E) 07:54:33 437.305
CUBESAT XI-V 30 Jun 07:54:28 07:57:42 18° 272° (W) 08:00:48 437.345
AUBIESAT-1 30 Jun 07:55:58 07:58:58 32° 63° (ENE) 08:02:05 437.475
GONETS M04 30 Jun 08:17:59 08:22:44 17° 74° (ENE) 08:27:58
M-CUBED/EXP-1 PRIME 30 Jun 08:25:10 08:28:28 87° 70° (ENE) 08:31:52 437.505
STRAND 1 30 Jun 08:28:00 08:32:10 24° 269° (W) 08:36:15 437.568
CUSAT 1 30 Jun 08:36:22 08:42:48 46° 97° (E) 08:47:51 437.405
BRITE-PL 30 Jun 08:37:56 08:41:58 32° 94° (E) 08:45:50 437.365/2234.400
GOMX 1 30 Jun 08:38:46 08:41:54 20° 90° (E) 08:45:04 467.674
HO-68 30 Jun 08:39:08 08:44:13 21° 87° (E) 08:49:31 435.675
PRISM 30 Jun 08:39:22 08:41:40 14° 272° (W) 08:43:48 437.425
AO-7 30 Jun 08:47:50 08:52:11 15° 325° (NW) 08:56:16 29.400- 29.500
CUTE-I 30 Jun 08:48:28 08:53:19 34° 296° (WNW) 08:58:04 437.470
BEESAT 3 30 Jun 08:56:21 09:00:05 36° 120° (ESE) 09:03:53 437.485
CUTE 1.7 + AOD 2 30 Jun 08:59:48 09:02:50 19° 90° (E) 09:05:59 437.475
BEESAT 2 30 Jun 09:01:41 09:05:22 33° 119° (ESE) 09:09:07 435.950
CANX-2 30 Jun 09:02:11 09:05:31 22° 92° (E) 09:08:55 2200.000
DANDE 30 Jun 09:05:17 09:12:42 60° 98° (E) 09:18:30 436.750
COMPASS 1 30 Jun 09:06:09 09:08:30 15° 88° (E) 09:11:00 437.405
Cosmos 2504 30 Jun 09:12:52 09:17:59 20° 304° (WNW) 09:22:52 435.465 / 435.565
RS-15 30 Jun 09:15:58 09:26:15 37° 13° (NNE) 09:37:01 29.354- 29.394
Cubesat XI-IV 30 Jun 09:21:48 09:25:44 21° 302° (WNW) 09:29:31 437.490
O/OREOS (USA 219) 30 Jun 09:26:58 09:31:26 83° 296° (WNW) 09:35:56 437.305
CINEMA 3 30 Jun 09:30:26 09:33:27 20° 91° (E) 09:36:34 145.822/145.860
AUBIESAT-1 30 Jun 09:31:31 09:33:55 18° 262° (W) 09:36:17 437.475
UNISAT 6 30 Jun 09:34:41 09:37:28 17° 62° (ENE) 09:40:20 437.425
DOVE 4 30 Jun 09:45:49 09:50:00 58° 100° (E) 09:54:05 437.250
QB50P1 30 Jun 09:46:06 09:46:51 10° 57° (ENE) 09:47:47 145.935-145.965
AIST 2 30 Jun 09:48:25 09:52:01 27° 117° (ESE) 09:55:42 435.215
SEEDS 30 Jun 09:55:11 09:59:23 56° 100° (E) 10:03:34 437.485
Oscar 11 30 Jun 09:57:48 10:01:04 21° 91° (E) 10:04:24 145.826/435.025
NANOSAT C BR1 30 Jun 10:00:38 10:02:51 14° 60° (ENE) 10:05:11 145.865
POLYITAN 1 30 Jun 10:07:34 10:10:14 17° 62° (ENE) 10:13:02 437.675
DUCHIFAT 1 30 Jun 10:08:49 10:11:26 17° 61° (ENE) 10:14:10 145.980
GONETS M04 30 Jun 10:09:26 10:18:11 73° 95° (E) 10:26:55
UWE-3 30 Jun 10:15:42 10:19:02 23° 93° (E) 10:22:27 435.000/436.395/437.385
GOMX 1 30 Jun 10:16:14 10:20:24 44° 290° (WNW) 10:24:22 467.674
BRITE-PL 30 Jun 10:16:32 10:20:31 30° 294° (WNW) 10:24:14 437.365/2234.400
FUNcube-1 30 Jun 10:16:34 10:19:29 19° 90° (E) 10:22:31 145.935
ANTELSAT 30 Jun 10:17:35 10:21:37 42° 70° (ENE) 10:25:41 437.575/2403.000
AAUSAT CUBESAT 2 30 Jun 10:18:30 10:22:42 68° 101° (ESE) 10:26:54 437.432
CUSAT 1 30 Jun 10:19:33 10:25:29 33° 289° (WNW) 10:30:08 437.405
ISS 30 Jun 10:21:15 10:23:47 21° 141° (SE) 10:26:21 145.825
HO-68 30 Jun 10:25:44 10:32:56 86° 289° (WNW) 10:40:07 435.675
TIGRISAT 30 Jun 10:31:58 10:36:10 56° 72° (ENE) 10:40:22 435.000
BEESAT 3 30 Jun 10:34:19 10:38:04 33° 319° (NW) 10:41:51 437.485
CUTE 1.7 + AOD 2 30 Jun 10:34:54 10:39:03 48° 289° (WNW) 10:43:10 437.475
QB50P2 30 Jun 10:36:49 10:40:33 31° 67° (ENE) 10:44:19 145.880/145.840
HUMSAT D 30 Jun 10:37:19 10:39:28 14° 88° (E) 10:41:47 437.325/437.525
CANX-2 30 Jun 10:37:35 10:41:38 41° 290° (WNW) 10:45:39 2200.000
POPSAT HIP 1 30 Jun 10:38:47 10:42:32 31° 67° (ENE) 10:46:18 437.405
BEESAT 2 30 Jun 10:39:33 10:43:25 36° 318° (NW) 10:47:16 435.950
COMPASS 1 30 Jun 10:40:27 10:44:38 62° 287° (WNW) 10:48:47 437.405
BUGSAT 1 30 Jun 10:46:15 10:49:44 26° 65° (ENE) 10:53:15 437.445
DANDE 30 Jun 10:49:48 10:56:06 30° 292° (WNW) 11:01:06 436.750
CUBEBUG 2 30 Jun 10:50:23 10:54:32 65° 101° (E) 10:58:43 437.445
DX 1 30 Jun 11:01:59 11:05:17 21° 92° (E) 11:08:40 434.975-435.025
CINEMA 3 30 Jun 11:06:58 11:10:56 43° 290° (WNW) 11:14:53 145.822/145.860
DELFI C3 30 Jun 11:07:08 11:11:14 75° 102° (ESE) 11:15:18 145.870
O/OREOS (USA 219) 30 Jun 11:09:05 11:11:39 15° 318° (NW) 11:14:07 437.305
UNISAT 6 30 Jun 11:09:36 11:13:53 59° 259° (W) 11:18:07 437.425
VERMONT LUNAR 30 Jun 11:11:01 11:13:00 16° 167° (SSE) 11:15:01 437.305
ZACube-1 30 Jun 11:13:36 11:17:47 71° 102° (ESE) 11:22:00 437.345
QB50P1 30 Jun 11:17:46 11:22:01 76° 75° (ENE) 11:26:17 145.935-145.965
AISAT 30 Jun 11:19:44 11:22:53 19° 90° (E) 11:26:08 437.250
DOVE 4 30 Jun 11:24:39 11:27:24 17° 299° (WNW) 11:29:58 437.250
AIST 2 30 Jun 11:26:20 11:30:27 44° 316° (NW) 11:34:34 435.215
RS-15 30 Jun 11:29:39 11:41:11 68° 43° (NE) 11:53:15 29.354- 29.394
UKube-1 30 Jun 11:29:46 11:33:47 36° 97° (E) 11:37:47 .
SEEDS 30 Jun 11:31:52 11:34:49 18° 298° (WNW) 11:37:40 437.485
Oscar 11 30 Jun 11:33:19 11:37:30 46° 290° (WNW) 11:41:38 145.826/435.025
NANOSAT C BR1 30 Jun 11:33:55 11:38:10 76° 256° (WSW) 11:42:26 145.865
ESTCUBE 1 30 Jun 11:34:31 11:37:39 19° 90° (E) 11:40:53 437.505/2401.250
POLYITAN 1 30 Jun 11:41:32 11:45:45 61° 259° (W) 11:49:59 437.675
50 SAT 30 Jun 11:41:40 11:45:12 33° 96° (E) 11:48:45 437.505
Cosmos 2499 30 Jun 11:42:23 11:49:16 59° 93° (E) 11:56:14 435.465 / 435.565
DUCHIFAT 1 30 Jun 11:42:37 11:46:50 63° 258° (WSW) 11:51:04 145.980
UWE-3 30 Jun 11:51:50 11:55:43 37° 291° (WNW) 11:59:36 435.000/436.395/437.385
FUNcube-1 30 Jun 11:52:05 11:56:07 48° 289° (WNW) 12:00:10 145.935
CUBEBUG 1 30 Jun 11:52:36 11:56:04 23° 92° (E) 11:59:33 437.445
ANTELSAT 30 Jun 11:55:13 11:58:37 22° 268° (W) 12:01:56 437.575/2403.000
AAUSAT CUBESAT 2 30 Jun 11:55:21 11:57:51 15° 299° (WNW) 12:00:14 437.432
ISS 30 Jun 11:56:39 11:59:53 85° 333° (NNW) 12:03:10 145.825
PHONESAT 2.4 30 Jun 11:59:02 12:00:38 13° 160° (SSE) 12:02:18 2401.200-2431.200
GONETS M04 30 Jun 12:08:18 12:15:57 31° 299° (WNW) 12:23:26
VELOX 1 30 Jun 12:09:51 12:14:14 56° 101° (E) 12:18:34 145.980
TIGRISAT 30 Jun 12:10:29 12:13:20 17° 271° (W) 12:16:01 435.000
HUMSAT D 30 Jun 12:11:35 12:15:41 63° 287° (WNW) 12:19:47 437.325/437.525
QB50P2 30 Jun 12:12:39 12:16:26 30° 265° (W) 12:20:11 145.880/145.840
HO-68 30 Jun 12:14:30 12:19:50 23° 309° (NW) 12:24:59 435.675
POPSAT HIP 1 30 Jun 12:14:38 12:18:24 29° 265° (W) 12:22:08 437.405
BEESAT 3 30 Jun 12:15:58 12:17:14 11° 342° (NNW) 12:18:26 437.485
BEESAT 2 30 Jun 12:21:05 12:22:38 12° 341° (NNW) 12:24:07 435.950
BUGSAT 1 30 Jun 12:21:06 12:25:04 37° 263° (W) 12:29:00 437.445
CUBEBUG 2 30 Jun 12:28:18 12:30:49 15° 299° (WNW) 12:33:15 437.445
DX 1 30 Jun 12:37:36 12:41:47 45° 291° (WNW) 12:45:55 434.975-435.025
TISAT 1 30 Jun 12:38:20 12:40:25 14° 87° (E) 12:42:41 437.305
Gurwin Techsat 1B 30 Jun 12:43:34 12:45:19 12° 52° (NE) 12:47:18 435.225
DELFI C3 30 Jun 12:43:44 12:45:49 13° 300° (WNW) 12:47:45 145.870
VERMONT LUNAR 30 Jun 12:46:59 12:49:19 19° 184° (S) 12:51:41 437.305
ZACube-1 30 Jun 12:51:21 12:53:41 14° 299° (WNW) 12:55:54 437.345
AISAT 30 Jun 12:55:29 12:59:48 51° 290° (WNW) 13:04:04 437.250
QB50P1 30 Jun 12:56:35 12:58:29 12° 273° (W) 13:00:12 145.935-145.965
UKube-1 30 Jun 13:06:07 13:09:48 27° 295° (WNW) 13:13:25 .
AIST 2 30 Jun 13:07:55 13:10:05 13° 338° (NNW) 13:12:12 435.215
ESTCUBE 1 30 Jun 13:10:25 13:14:55 56° 289° (WNW) 13:19:21 437.505/2401.250
Oscar 19 30 Jun 13:11:51 13:16:48 51° 69° (ENE) 13:21:46 437.125/150
SPROUT 30 Jun 13:12:18 13:16:25 44° 98° (E) 13:20:31 437.525
ITAMSAT 1 30 Jun 13:14:41 13:18:18 20° 58° (ENE) 13:22:04 435.822/435.867
50 SAT 30 Jun 13:16:32 13:19:43 24° 294° (WNW) 13:22:51 437.505
CUBEBUG 1 30 Jun 13:28:27 13:32:38 42° 291° (WNW) 13:36:44 437.445
ISS 30 Jun 13:33:21 13:36:31 45° 359° (N) 13:39:39 145.825
PHONESAT 2.4 30 Jun 13:35:15 13:37:58 21° 176° (S) 13:40:42 2401.200-2431.200
Cosmos 2499 30 Jun 13:36:48 13:42:57 30° 296° (WNW) 13:49:02 435.465 / 435.565
RS-15 30 Jun 13:42:28 13:53:24 47° 247° (WSW) 14:04:34 29.354- 29.394
YUBILEINY 30 Jun 13:43:37 13:50:26 25° 57° (ENE) 13:57:29 435.215
VELOX 1 30 Jun 13:47:13 13:50:25 19° 299° (WNW) 13:53:31 145.980
BEESAT 30 Jun 14:05:04 14:08:37 21° 90° (E) 14:12:16 436.000
TISAT 1 30 Jun 14:12:32 14:16:43 66° 287° (WNW) 14:20:51 437.305
AO-7 30 Jun 14:13:09 14:19:42 28° 49° (NE) 14:26:28 29.400- 29.500
Cosmos 2491 30 Jun 14:13:28 14:16:41 13° 71° (ENE) 14:20:31 435.465 / 435.565
Gurwin Techsat 1B 30 Jun 14:19:08 14:24:22 62° 71° (ENE) 14:29:39 435.225
SWISSCUBE 30 Jun 14:19:31 14:23:43 30° 94° (E) 14:27:57 437.505
ITUPSAT 1 30 Jun 14:22:33 14:26:44 29° 94° (E) 14:30:56 437.325
VERMONT LUNAR 30 Jun 14:24:35 14:25:36 11° 200° (SSW) 14:26:33 437.305
SPROUT 30 Jun 14:48:55 14:52:17 22° 296° (WNW) 14:55:32 437.525
JAS-2 30 Jun 14:50:04 14:54:35 32° 63° (ENE) 14:59:20 435.910
ITAMSAT 1 30 Jun 14:52:05 14:57:18 74° 256° (WSW) 15:02:35 435.822/435.867
Oscar 19 30 Jun 14:52:13 14:56:27 25° 268° (W) 15:00:36 437.125/150
KKS-1 30 Jun 14:57:53 14:59:32 12° 86° (E) 15:01:24 437.445
HORYU 2 30 Jun 14:59:04 15:02:30 23° 63° (ENE) 15:06:02 437.375
ISS 30 Jun 15:09:54 15:13:09 75° 19° (NNE) 15:16:24 145.825
PHONESAT 2.4 30 Jun 15:12:56 15:15:22 18° 193° (SSW) 15:17:47 2401.200-2431.200
BEESAT 3 30 Jun 15:33:58 15:36:40 17° 29° (NNE) 15:39:24 437.485
BEESAT 2 30 Jun 15:39:40 15:42:19 16° 28° (NNE) 15:44:59 435.950
YUBILEINY 30 Jun 15:39:50 15:48:38 88° 259° (WSW) 15:57:26 435.215
BEESAT 30 Jun 15:42:07 15:46:50 55° 289° (WNW) 15:51:31 436.000
SWISSCUBE 30 Jun 15:57:11 16:01:40 38° 293° (WNW) 16:06:05 437.505
STARS 30 Jun 15:59:41 16:03:33 30° 95° (E) 16:07:27 437.465
ITUPSAT 1 30 Jun 16:00:13 16:04:44 40° 293° (WNW) 16:09:11 437.325
Gurwin Techsat 1B 30 Jun 16:00:45 16:04:50 21° 270° (W) 16:08:48 435.225
Cosmos 2491 30 Jun 16:03:14 16:11:49 60° 92° (E) 16:20:28 435.465 / 435.565
AO-7 30 Jun 16:03:16 16:11:38 89° 71° (ENE) 16:20:05 29.400- 29.500
AIST 2 30 Jun 16:28:15 16:30:50 16° 26° (NNE) 16:33:28 435.215
KKS-1 30 Jun 16:32:24 16:36:52 82° 286° (WNW) 16:41:17 437.445
HORYU 2 30 Jun 16:34:40 16:38:55 45° 261° (W) 16:43:11 437.375
JAS-2 30 Jun 16:34:53 16:39:43 38° 264° (W) 16:44:41 435.910
ITAMSAT 1 30 Jun 16:36:20 16:37:52 11° 277° (W) 16:39:04 435.822/435.867
ISS 30 Jun 16:46:35 16:49:20 25° 217° (SW) 16:52:04 145.825
AIST 1 30 Jun 16:50:52 16:55:16 78° 98° (E) 16:59:42
CUTE-I 30 Jun 16:56:26 16:59:46 17° 56° (NE) 17:03:16 437.470
Cosmos 2504 30 Jun 17:02:50 17:09:53 43° 70° (ENE) 17:17:28 435.465 / 435.565
BEESAT 3 30 Jun 17:11:13 17:15:19 76° 50° (NE) 17:19:20 437.485
BEESAT 2 30 Jun 17:17:00 17:21:07 70° 49° (NE) 17:25:10 435.950
PCSat 30 Jun 17:23:38 17:28:55 58° 119° (ESE) 17:34:16 145.827
Cubesat XI-IV 30 Jun 17:27:44 17:32:15 29° 62° (ENE) 17:36:53 437.490
